Weather reports worldwide

Advertisment
Sevilla/San Pablo, Spain (8391): temperature & dewpoint: 13.01.2019 10:00:00 - 19.01.2019 10:00:00 (CET)Sevilla/San Pablo, Spain (8391): wind speed: 13.01.2019 10:00:00 - 19.01.2019 10:00:00 (CET)Sevilla/San Pablo, Spain (8391): wind direction: 13.01.2019 10:00:00 - 19.01.2019 10:00:00 (CET)Sevilla/San Pablo, Spain (8391): reduced air pressure: 13.01.2019 10:00:00 - 19.01.2019 10:00:00 (CET)Sevilla/San Pablo, Spain (8391): visibility: 13.01.2019 10:00:00 - 19.01.2019 10:00:00 (CET)
Date & Time tt [°C] td [°C] ff [km/h] ff [kn] dd ppp [hPa] vv [km]
19.01.2019 10:00:00 8,9 8,4 8 4 E 1019,5 5
19.01.2019 09:00:00 8,2 7,9 9 5 NNE 1019,5 -
19.01.2019 08:00:00 8,3 8,0 11 6 NNE 1018,8 -
19.01.2019 07:00:00 8,3 8,0 9 5 ENE 1018,6 2,5
19.01.2019 06:00:00 8,4 8,1 8 4 NE 1019,1 -
19.01.2019 05:00:00 8,4 7,9 5 3 E 1019,2 -
19.01.2019 04:00:00 8,6 7,7 0 0 N 1019,8 2,0
19.01.2019 03:00:00 8,9 7,7 5 3 W 1020,1 -
19.01.2019 02:00:00 9,4 7,2 11 6 W 1020,1 -
19.01.2019 01:00:00 10,1 6,1 11 6 W 1020,5 15
19.01.2019 00:00:00 10,7 5,2 0 0 N 1020,7 -
18.01.2019 23:00:00 11,1 4,5 15 8 W 1020,7 -
18.01.2019 22:00:00 11,8 3,1 13 7 WNW 1020,3 30
18.01.2019 21:00:00 11,8 2,8 9 5 W 1019,9 -
18.01.2019 20:00:00 13,2 4,8 11 6 WSW 1019,5 -
18.01.2019 19:00:00 13,3 5,7 9 5 SSW 1019,3 30
18.01.2019 18:00:00 14,5 5,4 11 6 SW 1019,3 -
18.01.2019 17:00:00 15,0 3,0 8 4 SW 1019,4 -
18.01.2019 16:00:00 15,7 3,4 11 6 W 1019,9 30
18.01.2019 15:00:00 15,4 3,6 5 3 W 1020,2 -
18.01.2019 14:00:00 14,1 3,6 4 2 NNE 1020,9 -
18.01.2019 13:00:00 13,0 4,0 4 2 NE 1021,6 25
18.01.2019 12:00:00 11,6 4,5 8 4 NE 1022,4 -
18.01.2019 11:00:00 8,6 5,0 9 5 NNE 1022,1 -
18.01.2019 10:00:00 5,6 4,6 0 0 N 1021,6 12
18.01.2019 09:00:00 2,3 1,4 4 2 E 1021,3 -
18.01.2019 08:00:00 3,3 2,6 0 0 N 1020,6 -
18.01.2019 07:00:00 3,0 2,3 0 0 N 1020,1 15
18.01.2019 06:00:00 3,1 2,1 2 1 SSE 1019,6 -
18.01.2019 05:00:00 3,9 2,6 0 0 N 1019,9 -
18.01.2019 04:00:00 4,3 3,0 0 0 N 1020,2 30
18.01.2019 03:00:00 4,4 3,1 8 4 WNW 1020,1 -
18.01.2019 02:00:00 6,6 3,9 0 0 N 1020,2 -
18.01.2019 01:00:00 7,5 4,4 9 5 NE 1020,3 30
18.01.2019 00:00:00 7,3 5,3 9 5 NNE 1020,5 -
17.01.2019 23:00:00 8,5 6,3 8 4 NE 1019,9 -
17.01.2019 22:00:00 11,3 7,4 9 5 NNE 1019,3 20
17.01.2019 21:00:00 11,8 7,3 0 0 N 1019,0 -
17.01.2019 20:00:00 12,0 6,9 0 0 N 1018,6 -
17.01.2019 19:00:00 11,8 7,1 4 2 E 1018,2 20
17.01.2019 18:00:00 13,7 6,5 8 4 W 1017,5 -
17.01.2019 17:00:00 15,1 6,9 9 5 W 1017,4 -
17.01.2019 16:00:00 14,1 7,4 0 0 N 1017,3 20
17.01.2019 15:00:00 14,6 6,9 9 5 NNE 1017,8 -
17.01.2019 14:00:00 14,6 6,3 4 2 NE 1018,4 -
17.01.2019 13:00:00 12,7 6,1 9 5 NNE 1019,4 20
17.01.2019 12:00:00 12,0 6,4 4 2 N 1020,2 -
17.01.2019 11:00:00 10,6 6,3 4 2 ENE 1019,9 -
17.01.2019 10:00:00 8,7 5,8 8 4 ENE 1019,3 20
17.01.2019 09:00:00 6,8 5,4 8 4 ENE 1019,0 -
17.01.2019 08:00:00 5,3 3,9 8 4 NE 1018,5 -
17.01.2019 07:00:00 5,2 3,4 0 0 N 1018,1 25
17.01.2019 06:00:00 6,6 4,8 4 2 NE 1017,8 -
17.01.2019 05:00:00 6,6 4,6 8 4 NE 1018,3 -
17.01.2019 04:00:00 6,7 5,2 9 5 NNE 1018,5 20
17.01.2019 03:00:00 7,6 5,9 9 5 NE 1018,4 -
17.01.2019 02:00:00 9,0 6,6 8 4 N 1018,7 -
17.01.2019 01:00:00 10,6 7,3 0 0 N 1019,1 30
17.01.2019 00:00:00 11,2 7,5 8 4 ENE 1019,2 -
16.01.2019 23:00:00 11,4 7,5 11 6 ENE 1019,4 -
16.01.2019 22:00:00 11,1 7,6 4 2 ENE 1019,0 30
16.01.2019 21:00:00 11,4 7,1 4 2 ESE 1018,9 -
16.01.2019 20:00:00 12,9 6,7 5 3 SW 1018,7 -
16.01.2019 19:00:00 12,7 7,4 0 0 N 1018,4 30
16.01.2019 18:00:00 15,3 6,8 2 1 SSW 1018,2 -
16.01.2019 17:00:00 16,6 7,2 4 2 ESE 1018,2 -
16.01.2019 16:00:00 16,1 7,6 5 3 NNW 1018,4 30
16.01.2019 15:00:00 16,2 7,6 5 3 W 1019,0 -
16.01.2019 14:00:00 15,3 8,3 4 2 WNW 1019,7 -
16.01.2019 13:00:00 13,8 8,3 4 2 N 1020,7 30
16.01.2019 12:00:00 11,9 7,6 4 2 NNE 1021,7 -
16.01.2019 11:00:00 9,1 6,7 9 5 NNE 1021,6 -
16.01.2019 10:00:00 6,2 5,2 5 3 NNE 1021,4 8
16.01.2019 09:00:00 5,1 4,4 9 5 NE 1020,9 -
16.01.2019 08:00:00 4,6 3,9 9 5 NNW 1020,9 -
16.01.2019 07:00:00 3,5 2,8 4 2 NNE 1020,7 5
16.01.2019 06:00:00 3,6 2,9 2 1 NE 1020,9 -
16.01.2019 05:00:00 3,2 2,3 5 3 N 1021,1 -
16.01.2019 04:00:00 4,3 3,6 4 2 NNW 1021,6 4,0
16.01.2019 03:00:00 4,0 3,1 5 3 NNE 1021,7 -
16.01.2019 02:00:00 4,7 3,8 4 2 N 1021,7 -
16.01.2019 01:00:00 4,9 3,7 2 1 NNE 1022,0 5
16.01.2019 00:00:00 5,5 4,2 2 1 N 1022,2 -
15.01.2019 23:00:00 6,1 4,7 0 0 N 1022,0 -
15.01.2019 22:00:00 6,6 5,1 4 2 SE 1021,7 -
15.01.2019 21:00:00 7,3 5,6 9 5 ESE 1021,4 -
15.01.2019 20:00:00 8,3 6,0 5 3 ESE 1021,1 -
15.01.2019 19:00:00 9,7 6,4 5 3 E 1020,9 9
15.01.2019 18:00:00 11,0 6,9 8 4 NNE 1020,4 -
15.01.2019 17:00:00 12,3 7,2 9 5 NNE 1020,5 -
15.01.2019 16:00:00 13,0 7,1 11 6 NNE 1020,5 12
15.01.2019 15:00:00 14,3 7,2 11 6 N 1020,5 -
15.01.2019 14:00:00 13,6 7,1 9 5 NNE 1021,1 -
15.01.2019 13:00:00 13,9 7,4 4 2 N 1022,0 12
15.01.2019 12:00:00 11,8 7,4 4 2 N 1022,6 -
15.01.2019 11:00:00 7,1 4,4 5 3 NNE 1022,8 -
15.01.2019 10:00:00 4,8 3,5 0 0 N 1022,3 8
15.01.2019 09:00:00 3,4 2,5 4 2 NNE 1021,5 -
15.01.2019 08:00:00 3,2 2,2 0 0 N 1021,2 -
15.01.2019 07:00:00 3,2 2,2 5 3 NNE 1020,7 9
15.01.2019 06:00:00 3,0 1,8 4 2 NNE 1020,6 -
15.01.2019 05:00:00 3,4 2,4 0 0 N 1020,8 -
15.01.2019 04:00:00 3,6 2,7 0 0 N 1021,1 7
15.01.2019 03:00:00 3,7 2,4 0 0 N 1021,1 -
15.01.2019 02:00:00 4,6 3,4 4 2 SE 1021,2 -
15.01.2019 01:00:00 6,1 4,8 2 1 SSW 1021,3 15
15.01.2019 00:00:00 5,9 3,6 8 4 SSE 1021,5 -
14.01.2019 23:00:00 7,5 4,1 4 2 S 1021,5 -
14.01.2019 22:00:00 8,8 4,0 8 4 S 1021,4 25
14.01.2019 21:00:00 11,4 4,8 13 7 SSW 1021,3 -
14.01.2019 20:00:00 12,3 4,5 11 6 SSW 1021,3 -
14.01.2019 19:00:00 13,6 4,2 9 5 SSW 1021,1 30
14.01.2019 18:00:00 16,5 2,5 9 5 SW 1021,1 -
14.01.2019 17:00:00 17,9 1,5 5 3 W 1021,2 -
14.01.2019 16:00:00 17,5 1,0 8 4 SW 1021,7 30
14.01.2019 15:00:00 16,6 2,5 5 3 NW 1022,2 -
14.01.2019 14:00:00 15,6 1,8 0 0 N 1023,1 -
14.01.2019 13:00:00 13,0 2,2 9 5 NE 1024,4 30
14.01.2019 12:00:00 11,1 2,5 13 7 NE 1025,4 -
14.01.2019 11:00:00 7,9 2,3 13 7 NE 1025,8 -
14.01.2019 10:00:00 4,6 1,7 9 5 NNE 1025,6 25
14.01.2019 09:00:00 2,1 0,2 5 3 NE 1025,3 -
14.01.2019 08:00:00 1,8 0,0 5 3 NNE 1025,3 -
14.01.2019 07:00:00 1,9 0,1 5 3 NNE 1025,0 30
14.01.2019 06:00:00 1,9 0,1 9 5 NNE 1024,9 -
14.01.2019 05:00:00 2,3 0,4 11 6 NE 1025,3 -
14.01.2019 04:00:00 3,2 0,6 0 0 N 1025,5 30
14.01.2019 03:00:00 1,8 0,0 8 4 NE 1025,7 -
14.01.2019 02:00:00 3,0 0,9 5 3 NE 1025,9 -
14.01.2019 01:00:00 4,5 1,0 4 2 WNW 1026,2 30
14.01.2019 00:00:00 5,1 1,4 0 0 N 1026,7 -
13.01.2019 23:00:00 5,4 1,3 2 1 NNW 1026,5 -
13.01.2019 22:00:00 6,2 1,7 4 2 E 1026,3 30
13.01.2019 21:00:00 7,7 2,2 0 0 N 1026,1 -
13.01.2019 20:00:00 9,1 2,4 9 5 NNE 1026,0 -
13.01.2019 19:00:00 12,2 2,3 0 0 N 1025,8 30
13.01.2019 18:00:00 15,9 1,6 8 4 NE 1025,7 -
13.01.2019 17:00:00 17,3 -0,5 11 6 ENE 1025,7 -
13.01.2019 16:00:00 17,1 0,4 13 7 ENE 1026,0 30
13.01.2019 15:00:00 16,3 0,7 15 8 ENE 1026,5 -
13.01.2019 14:00:00 15,2 1,6 15 8 ENE 1027,4 -
13.01.2019 13:00:00 13,1 0,6 18 10 ENE 1028,6 30
13.01.2019 12:00:00 11,2 -0,2 21 11 ENE 1029,8 -
13.01.2019 11:00:00 8,8 -0,2 16 9 NE 1029,7 -
13.01.2019 10:00:00 5,0 -1,5 13 7 ENE 1029,4 30

tt = temperature
td = dewpoint
ff = wind speed
dd = wind direction
ppp = reduced air pressure
vv = visibility

Next stations